Flag for U.S.A. Weather past 2 weeks in Alexandria, Virginia, U.S.A.

Now
76 °F

Mostly cloudy.


Feels Like: 76 °F
Forecast: 66 / 84 °F
Wind: 5 mph from Northeast

Location: Reagan National Airport

Current Time: Jul 4, 2015 at 10:56:15 PM

Latest Report: Jul 4, 2015 at 9:52 PM


Visibility: 3 mi

Pressure: 30.00 "Hg

Humidity: 85%

Dew point: 71 °F

Location of AlexandriaLocation

Historic Weather in Alexandria — Graph

°F

Alexandria temperature yesterday

Maximum temperature yesterday: 83 °F (at 2:52 PM)
Minimum temperature yesterday: 66 °F (at 6:02 AM)
Average temperature yesterday: 74 °F

Past Weeks' High & Low Weather Summary

 TemperatureHumidityPressure
High96 °F (Jun 23, 4:52 PM)94% (Jul 3, 6:02 AM)30.11 "Hg (Jul 3, 6:02 AM)
Low63 °F (Jun 29, 5:52 AM)36% (Jun 29, 4:52 PM)29.66 "Hg (Jun 28, 1:52 AM)
Average78 °F68%29.92 "Hg
* Reported Jun 19 8:52 PM — Jul 4 8:52 PM, Alexandria, Weather by CustomWeather, © 2015

Note: Actual official high and low records may vary slightly from our data, if they occured in-between our weather recording intervals... More about our weather records

Advertising

Alexandria weather history for previous 24 hours

 ConditionsComfort  
Time TempWeatherWind HumidityBarometerVisibility
8:52 PM
Sat, Jul 4
76 °FBroken clouds.No wind85%29.97 "Hg7 mi
7:52 PM77 °FBroken clouds.No wind82%29.96 "Hg10 mi
6:52 PM77 °FCloudy.No wind79%29.95 "Hg10 mi
5:52 PM76 °FCloudy.3 mph82%29.92 "Hg10 mi
5:04 PM73 °FStrong thunderstorms. Mostly cloudy.No wind89%29.92 "Hg2 mi
5:02 PM73 °FStrong thunderstorms. Mostly cloudy.No wind89%29.92 "Hg2 mi
3:52 PM83 °FMostly cloudy.No wind65%29.89 "Hg10 mi
2:52 PM82 °FCloudy.3 mph67%29.90 "Hg10 mi
1:52 PM80 °FCloudy.3 mph71%29.91 "Hg10 mi
12:52 PM78 °FBroken clouds.3 mph76%29.91 "Hg10 mi
11:59 AM77 °FOvercast.3 mph79%29.92 "Hg8 mi
10:52 AM74 °FCloudy.No wind85%29.92 "Hg7 mi
9:55 AM73 °FRain. Fog.No wind89%29.92 "Hg1 mi
9:02 AM73 °FLight rain. Mostly cloudy.3 mph89%29.91 "Hg4 mi
8:52 AM75 °FLight rain. Mostly cloudy.No wind79%29.91 "Hg6 mi
7:52 AM74 °FCloudy.3 mph82%29.90 "Hg7 mi
6:52 AM74 °FBroken clouds.3 mph82%29.89 "Hg7 mi
5:52 AM73 °FOvercast.5 mph84%29.89 "Hg8 mi
4:52 AM73 °FOvercast.3 mph84%29.88 "Hg8 mi
3:52 AM73 °FMostly cloudy.5 mph84%29.89 "Hg9 mi
2:52 AM74 °FMostly cloudy.No wind79%29.90 "Hg10 mi
1:52 AM73 °FLight rain. Mostly cloudy.5 mph81%29.91 "Hg10 mi
12:52 AM74 °FMostly cloudy.No wind79%29.93 "Hg10 mi
11:52 PM
Fri, Jul 3
74 °FLight rain. Overcast.No wind79%29.94 "Hg10 mi
10:52 PM74 °FLight rain. Mostly cloudy.5 mph76%29.94 "Hg10 mi
Weather by CustomWeather, © 2015

See weather overviewHow to use our weather pages